Location: Ferme V�ronneau
(45.1425°N, 71.8745°W)
Time: 05:43:39
(UTC-04:00)

Tiangong 2 - Visible Passes

Search period start: 25 March 2019 00:00
Search period end: 04 April 2019 00:00
Orbit: 380 x 389 km, 42.8° (Epoch: 25 March)

Date Brightness Start Highest point End Pass type
(mag) Time Alt. Az. Time Alt. Az. Time Alt. Az.
30 Mar 3.0 20:22:36 10° SSW 20:24:26 16° SSE 20:24:26 16° SSE visible
31 Mar 2.6 20:58:36 10° SW 21:00:27 26° SSW 21:00:27 26° SSW visible
01 Apr 2.4 19:59:28 10° SSW 20:02:04 24° SSE 20:04:02 14° ESE visible
01 Apr 3.6 21:35:25 10° WSW 21:36:16 17° WSW 21:36:16 17° WSW visible
02 Apr 1.5 20:35:59 10° WSW 20:38:59 44° SSE 20:39:44 36° SE visible
03 Apr 1.9 21:12:57 10° W 21:15:19 42° SW 21:15:19 42° SW visible
